GW1238 Weather Reports


time (UTC)temp
C
wind
direction
speed
KPH
gust
KPH
rain 1hr
cm
rain 24hr
cm
rain mn
cm
humidity
%
barometer
mb
20260510174141 26 122 1.6 1.6 0.00 0.00 0.00 37 1020.8
20260510173637 25 51 3.2 4.8 0.00 0.00 0.00 36 1020.6
20260510173133 25 77 1.6 3.2 0.00 0.00 0.00 43 1020.7
20260510172629 25 78 1.6 4.8 0.00 0.00 0.00 43 1020.9
20260510172125 25 109 3.2 3.2 0.00 0.00 0.00 45 1020.9
20260510171622 25 92 1.6 3.2 0.00 0.00 0.00 46 1020.8
20260510171120 25 123 0.0 1.6 0.00 0.00 0.00 43 1020.8
20260510170615 26 135 1.6 1.6 0.00 0.00 0.00 48 1020.9
20260510170112 26 172 1.6 3.2 0.00 0.00 0.00 49 1020.8
20260510165608 25 156 1.6 1.6 0.00 0.00 0.00 51 1021.1
20260510165104 25 128 1.6 3.2 0.00 0.00 0.00 50 1021.0
20260510164602 25 128 1.6 3.2 0.00 0.00 0.00 50 1021.1
20260510164058 26 133 1.6 1.6 0.00 0.00 0.00 44 1021.1
20260510163553 27 134 1.6 1.6 0.00 0.00 0.00 42 1021.0
20260510163050 29 158 0.0 1.6 0.00 0.00 0.00 35 1021.1
20260510162545 29 161 0.0 1.6 0.00 0.00 0.00 39 1021.0
20260510162042 29 172 0.0 1.6 0.00 0.00 0.00 38 1021.3
20260510161537 29 153 0.0 0.0 0.00 0.00 0.00 40 1021.2
20260510161034 29 163 0.0 0.0 0.00 0.00 0.00 48 1021.0
20260510160532 29 164 0.0 1.6 0.00 0.00 0.00 49 1021.1
20260510160031 29 158 0.0 0.0 0.00 0.00 0.00 55 1020.9
20260510155528 29 158 0.0 0.0 0.00 0.00 0.00 59 1020.9
20260510155024 28 158 0.0 0.0 0.00 0.00 0.00 61 1021.0
20260510154520 27 158 0.0 0.0 0.00 0.00 0.00 63 1021.2
20260510154020 27 158 0.0 0.0 0.00 0.00 0.00 64 1021.0
20260510153515 26 159 0.0 0.0 0.00 0.00 0.00 69 1020.9
20260510153013 25 183 1.6 1.6 0.00 0.00 0.00 68 1020.9
20260510152510 25 153 0.0 1.6 0.00 0.00 0.00 72 1021.1
20260510152006 24 151 3.2 3.2 0.00 0.00 0.00 71 1021.0
20260510151503 23 145 1.6 1.6 0.00 0.00 0.00 74 1020.9
20260510151000 22 132 1.6 3.2 0.00 0.00 0.00 76 1021.0
20260510150455 22 133 3.2 3.2 0.00 0.00 0.00 75 1020.9
20260510145951 23 141 1.6 1.6 0.00 0.00 0.00 71 1020.9
20260510145448 25 163 1.6 1.6 0.00 0.00 0.00 71 1021.0
20260510144944 24 175 1.6 1.6 0.00 0.00 0.00 72 1021.0
20260510144441 24 183 3.2 3.2 0.00 0.00 0.00 70 1021.3
20260510143937 25 167 0.0 1.6 0.00 0.00 0.00 72 1021.1
20260510143432 24 181 1.6 3.2 0.00 0.00 0.00 71 1021.0
20260510142930 24 155 1.6 1.6 0.00 0.00 0.00 72 1021.2
20260510142427 24 168 1.6 1.6 0.00 0.00 0.00 73 1020.8
20260510141923 23 171 1.6 3.2 0.00 0.00 0.00 74 1021.0
20260510141420 23 170 1.6 1.6 0.00 0.00 0.00 74 1020.8
20260510140917 23 171 1.6 1.6 0.00 0.00 0.00 77 1021.0
20260510140414 23 178 1.6 1.6 0.00 0.00 0.00 75 1021.0
20260510135913 23 174 1.6 1.6 0.00 0.00 0.00 75 1020.8
20260510135409 23 155 0.0 1.6 0.00 0.00 0.00 77 1020.7
20260510134907 22 170 0.0 1.6 0.00 0.00 0.00 79 1020.9
20260510134403 22 178 1.6 3.2 0.00 0.00 0.00 80 1020.9
20260510133859 21 171 1.6 3.2 0.00 0.00 0.00 81 1021.0
20260510133355 21 170 1.6 1.6 0.00 0.00 0.00 83 1020.9
20260510132851 21 163 1.6 3.2 0.00 0.00 0.00 84 1021.0
20260510132349 21 156 0.0 1.6 0.00 0.00 0.00 85 1020.9
20260510131846 21 168 1.6 3.2 0.00 0.00 0.00 87 1020.8
20260510131343 20 161 1.6 3.2 0.00 0.00 0.00 89 1020.7
20260510130839 19 155 1.6 1.6 0.00 0.00 0.00 90 1021.0
20260510130337 18 114 1.6 3.2 0.00 0.00 0.00 91 1020.8
20260510125833 18 107 1.6 3.2 0.00 0.00 0.00 91 1020.9
20260510125329 18 109 1.6 3.2 0.00 0.00 0.00 92 1020.9
20260510124826 18 104 1.6 1.6 0.00 0.00 0.00 93 1020.8
20260510124323 18 122 0.0 3.2 0.00 0.00 0.00 95 1020.8
20260510123819 18 84 1.6 3.2 0.00 0.00 0.00 97 1020.8
20260510123315 17 99 1.6 1.6 0.00 0.00 0.00 98 1020.6
20260510122811 18 106 0.0 0.0 0.00 0.00 0.00 98 1020.7
20260510122307 17 173 0.0 0.0 0.00 0.00 0.00 99 1020.6
20260510121804 16 311 0.0 0.0 0.00 0.00 0.00 99 1020.6
20260510121302 16 334 0.0 0.0 0.00 0.00 0.00 99 1020.5
20260510120758 15 313 0.0 0.0 0.00 0.00 0.00 99 1020.5
20260510120255 15 307 0.0 0.0 0.00 0.00 0.00 99 1020.2
20260510115751 15 300 1.6 1.6 0.00 0.00 0.00 99 1020.5
20260510115249 14 306 1.6 3.2 0.00 0.00 0.00 99 1020.3
20260510114744 13 308 3.2 3.2 0.00 0.00 0.00 99 1020.5
20260510114242 13 296 3.2 3.2 0.00 0.00 0.00 99 1020.2
20260510113737 13 299 3.2 3.2 0.00 0.00 0.00 99 1020.1
20260510113234 14 290 1.6 3.2 0.00 0.00 0.00 99 1020.0
20260510112730 13 296 3.2 3.2 0.00 0.00 0.00 99 1020.1
20260510112227 13 294 1.6 3.2 0.00 0.00 0.00 99 1020.0
20260510111723 13 296 1.6 3.2 0.00 0.00 0.00 99 1019.7
20260510111220 13 283 1.6 3.2 0.00 0.00 0.00 99 1019.7
20260510110720 13 299 3.2 4.8 0.00 0.00 0.00 99 1019.5
20260510110218 13 292 3.2 4.8 0.00 0.00 0.00 99 1019.4
20260510105717 13 288 3.2 4.8 0.00 0.00 0.00 99 1019.2
20260510105212 13 301 3.2 3.2 0.00 0.00 0.00 99 1019.3
20260510104709 13 299 3.2 3.2 0.00 0.00 0.00 99 1019.1
20260510104206 13 293 3.2 3.2 0.00 0.00 0.00 99 1019.1
20260510103703 13 291 3.2 4.8 0.00 0.00 0.00 99 1019.1
20260510103200 13 295 3.2 4.8 0.00 0.00 0.00 99 1018.8
20260510102700 13 295 3.2 3.2 0.00 0.00 0.00 99 1018.8
20260510102156 13 294 3.2 3.2 0.00 0.00 0.00 99 1018.9
20260510101653 13 300 3.2 3.2 0.00 0.00 0.00 99 1018.9
20260510101152 13 285 3.2 3.2 0.00 0.00 0.00 99 1018.9
20260510100647 13 295 3.2 3.2 0.00 0.00 0.00 99 1019.0
20260510100145 13 298 3.2 3.2 0.00 0.00 0.00 99 1018.8
20260510095640 13 293 1.6 4.8 0.00 0.00 0.00 99 1018.8
20260510095136 13 306 3.2 3.2 0.00 0.00 0.00 99 1019.1
20260510094634 13 296 3.2 3.2 0.00 0.00 0.00 99 1018.7
20260510094131 13 298 3.2 4.8 0.00 0.00 0.00 99 1018.7
20260510093621 13 297 3.2 3.2 0.00 0.00 0.00 99 1018.8
20260510093118 13 287 3.2 3.2 0.00 0.00 0.00 99 1018.7
20260510092615 13 302 3.2 6.4 0.00 0.00 0.00 99 1018.4
20260510092115 13 295 3.2 3.2 0.00 0.00 0.00 99 1018.3
20260510091611 13 295 3.2 3.2 0.00 0.00 0.00 99 1018.4
20260510091107 13 300 3.2 3.2 0.00 0.00 0.00 99 1018.3
20260510090605 13 295 3.2 3.2 0.00 0.00 0.00 99 1018.2
20260510090100 13 290 3.2 3.2 0.00 0.00 0.00 99 1018.2
20260510085555 13 294 3.2 4.8 0.00 0.00 0.00 99 1018.1
20260510085051 13 298 3.2 3.2 0.00 0.00 0.00 99 1018.2
20260510084548 13 294 3.2 6.4 0.00 0.00 0.00 99 1018.0
20260510084045 13 289 3.2 3.2 0.00 0.00 0.00 99 1018.0
20260510083541 13 294 3.2 4.8 0.00 0.00 0.00 99 1017.9
20260510083038 13 291 3.2 4.8 0.00 0.00 0.00 99 1018.0
20260510082535 13 299 4.8 4.8 0.00 0.00 0.00 99 1017.6
20260510082030 13 296 3.2 3.2 0.00 0.00 0.00 99 1017.8
20260510081525 13 294 3.2 4.8 0.00 0.00 0.00 99 1017.8
20260510081021 13 296 4.8 4.8 0.00 0.00 0.00 99 1017.7
20260510080520 13 293 3.2 4.8 0.00 0.00 0.00 99 1017.5
20260510080017 13 293 3.2 3.2 0.00 0.00 0.00 99 1017.5
20260510075515 13 294 3.2 4.8 0.00 0.00 0.00 99 1017.4
20260510075011 13 294 3.2 4.8 0.00 0.00 0.00 99 1017.5
20260510074510 13 290 3.2 4.8 0.00 0.00 0.00 99 1017.4
20260510074004 13 298 3.2 3.2 0.00 0.00 0.00 99 1017.5
20260510073501 13 304 3.2 3.2 0.00 0.00 0.00 99 1017.5
20260510072957 13 296 3.2 4.8 0.00 0.00 0.00 99 1017.4
20260510072454 14 306 3.2 4.8 0.00 0.00 0.00 99 1017.4
20260510071950 13 290 3.2 3.2 0.00 0.00 0.00 99 1017.5
20260510071446 13 296 3.2 4.8 0.00 0.00 0.00 99 1017.4
20260510070944 14 290 3.2 3.2 0.00 0.00 0.00 99 1017.4
20260510070442 14 299 3.2 3.2 0.00 0.00 0.00 99 1017.4
20260510065937 14 303 3.2 6.4 0.00 0.00 0.00 99 1017.4
20260510065434 13 295 3.2 6.4 0.00 0.00 0.00 99 1017.3
20260510064930 13 295 3.2 4.8 0.00 0.00 0.00 99 1017.3
20260510064428 14 298 3.2 4.8 0.00 0.00 0.00 98 1017.2
20260510063924 14 298 3.2 4.8 0.00 0.00 0.00 98 1017.3
20260510063421 14 293 3.2 4.8 0.00 0.00 0.00 98 1017.2
20260510062919 14 292 3.2 3.2 0.00 0.00 0.00 98 1017.1
20260510062414 14 283 3.2 3.2 0.00 0.00 0.00 98 1017.3
20260510061910 14 295 3.2 4.8 0.00 0.00 0.00 98 1017.3
20260510061407 14 305 3.2 4.8 0.00 0.00 0.00 98 1017.4
20260510060902 14 310 3.2 4.8 0.00 0.00 0.00 98 1017.5
20260510060359 14 297 3.2 4.8 0.00 0.00 0.00 98 1017.4
20260510055856 14 298 3.2 3.2 0.00 0.00 0.00 98 1017.4
20260510055355 14 295 3.2 4.8 0.00 0.00 0.00 97 1017.4
20260510054854 15 301 3.2 4.8 0.00 0.00 0.00 97 1017.4
20260510054350 15 289 3.2 4.8 0.00 0.00 0.00 97 1017.5
20260510053845 15 284 3.2 4.8 0.00 0.00 0.00 97 1017.5
20260510053340 15 291 1.6 3.2 0.00 0.00 0.00 97 1017.6
20260510052837 15 278 3.2 3.2 0.00 0.00 0.00 97 1017.4
20260510052333 15 278 3.2 3.2 0.00 0.00 0.00 97 1017.8
20260510051829 15 291 3.2 4.8 0.00 0.00 0.00 97 1017.5
20260510051326 15 297 3.2 3.2 0.00 0.00 0.00 97 1017.8
20260510050823 15 292 3.2 4.8 0.00 0.00 0.00 97 1017.7
20260510050319 15 296 3.2 4.8 0.00 0.00 0.00 96 1017.8
20260510045817 15 301 3.2 4.8 0.00 0.00 0.00 96 1017.8
20260510045313 15 296 3.2 4.8 0.00 0.00 0.00 96 1017.7
20260510044811 15 291 3.2 4.8 0.00 0.00 0.00 96 1017.9
20260510044308 15 296 3.2 3.2 0.00 0.00 0.00 96 1017.9
20260510043804 15 288 3.2 3.2 0.00 0.00 0.00 96 1017.7
20260510043300 15 300 3.2 3.2 0.00 0.00 0.00 96 1017.9
20260510042758 15 293 3.2 4.8 0.00 0.00 0.00 96 1017.8
20260510042253 15 301 3.2 4.8 0.00 0.00 0.00 96 1017.9
20260510041750 15 299 3.2 6.4 0.00 0.00 0.00 96 1017.8
20260510041248 15 296 3.2 3.2 0.00 0.00 0.00 96 1017.8
20260510040745 15 302 3.2 4.8 0.00 0.00 0.00 95 1017.6
20260510040241 15 294 3.2 4.8 0.00 0.00 0.00 95 1017.7
20260510035737 15 299 3.2 4.8 0.00 0.00 0.00 95 1017.5
20260510035233 15 302 3.2 4.8 0.00 0.00 0.00 94 1017.6
20260510034729 15 299 3.2 4.8 0.00 0.00 0.00 94 1017.6
20260510034227 15 297 3.2 4.8 0.00 0.00 0.00 94 1017.7
20260510033722 15 291 3.2 4.8 0.00 0.00 0.00 93 1017.6
20260510033221 16 297 3.2 4.8 0.00 0.00 0.00 93 1017.7
20260510032716 16 305 3.2 4.8 0.00 0.00 0.00 93 1017.5
20260510032212 16 300 3.2 4.8 0.00 0.00 0.00 93 1017.6
20260510031707 16 297 3.2 4.8 0.00 0.00 0.00 93 1017.7
20260510031204 16 298 3.2 4.8 0.00 0.00 0.00 93 1017.7
20260510030703 16 299 3.2 4.8 0.00 0.00 0.00 92 1017.7
20260510030202 16 289 3.2 4.8 0.00 0.00 0.00 92 1017.4
20260510025659 16 298 4.8 6.4 0.00 0.00 0.00 91 1017.6
20260510025155 16 299 4.8 4.8 0.00 0.00 0.00 90 1017.2
20260510024653 16 298 3.2 4.8 0.00 0.00 0.00 90 1017.2
20260510024149 16 293 3.2 4.8 0.00 0.00 0.00 90 1017.4
20260510023645 16 297 3.2 3.2 0.00 0.00 0.00 90 1017.2
20260510023143 16 293 1.6 3.2 0.00 0.00 0.00 90 1017.1
20260510022643 16 293 3.2 4.8 0.00 0.00 0.00 90 1017.1
20260510022138 17 290 3.2 4.8 0.00 0.00 0.00 89 1016.9
20260510021634 17 294 3.2 4.8 0.00 0.00 0.00 89 1017.1
20260510021131 17 295 3.2 6.4 0.00 0.00 0.00 88 1017.1
20260510020625 17 297 4.8 4.8 0.00 0.00 0.00 87 1016.9
20260510020121 17 288 3.2 3.2 0.00 0.00 0.00 87 1016.7
20260510015617 17 292 3.2 3.2 0.00 0.00 0.00 87 1016.5
20260510015108 17 298 3.2 3.2 0.00 0.00 0.00 87 1016.9
20260510014603 17 291 3.2 3.2 0.00 0.00 0.00 87 1016.6
20260510014101 17 288 1.6 3.2 0.00 0.00 0.00 87 1016.4
20260510013556 17 297 3.2 4.8 0.00 0.00 0.00 86 1016.4
20260510013052 18 286 3.2 3.2 0.00 0.00 0.00 86 1016.4
20260510012551 18 289 3.2 3.2 0.00 0.00 0.00 86 1016.3
20260510012048 18 290 3.2 3.2 0.00 0.00 0.00 86 1016.2
20260510011547 18 282 1.6 4.8 0.00 0.00 0.00 86 1016.1
20260510011043 18 298 1.6 3.2 0.00 0.00 0.00 85 1015.9
20260510010540 18 284 1.6 3.2 0.00 0.00 0.00 84 1015.7
20260510010037 18 287 1.6 3.2 0.00 0.00 0.00 83 1015.8
20260510005533 18 284 3.2 3.2 0.00 0.00 0.00 83 1015.7
20260510005031 19 285 1.6 3.2 0.00 0.00 0.00 82 1015.8
20260510004528 19 284 1.6 4.8 0.00 0.00 0.00 82 1015.7
20260510004026 19 274 1.6 3.2 0.00 0.00 0.00 81 1015.6
20260510003523 20 261 1.6 3.2 0.00 0.00 0.00 82 1015.3
20260510003018 20 270 1.6 3.2 0.00 0.00 0.00 80 1015.7
20260510002514 20 279 1.6 1.6 0.00 0.00 0.00 79 1015.4
20260510002011 20 280 1.6 1.6 0.00 0.00 0.00 78 1015.3
20260510001508 20 282 1.6 3.2 0.00 0.00 0.00 77 1015.0
20260510001007 20 253 0.0 1.6 0.00 0.00 0.00 77 1015.2
20260510000507 20 267 1.6 1.6 0.00 0.00 0.00 77 1015.0
20260510000004 21 278 1.6 3.2 0.00 0.00 0.00 76 1015.0
20260509235501 22 296 1.6 1.6 0.00 0.00 0.00 73 1015.2
20260509234956 22 189 0.0 1.6 0.00 0.00 0.00 70 1015.3
20260509234454 22 202 0.0 1.6 0.00 0.00 0.00 71 1015.1
20260509233952 22 170 0.0 0.0 0.00 0.00 0.00 69 1015.1
20260509233449 22 250 0.0 1.6 0.00 0.00 0.00 71 1014.9
20260509232944 23 223 0.0 1.6 0.00 0.00 0.00 72 1014.8
20260509232443 23 164 0.0 0.0 0.00 0.00 0.00 68 1014.6
20260509231938 23 248 1.6 4.8 0.00 0.00 0.00 67 1014.9
20260509231435 23 221 1.6 3.2 0.00 0.00 0.00 66 1014.9
20260509230933 23 285 0.0 1.6 0.00 0.00 0.00 67 1014.8
20260509230430 23 208 0.0 1.6 0.00 0.00 0.00 66 1014.9
20260509225926 23 225 1.6 3.2 0.00 0.00 0.00 67 1014.7
20260509225422 23 176 0.0 3.2 0.00 0.00 0.00 66 1014.8
20260509224919 23 210 0.0 4.8 0.00 0.00 0.00 66 1014.7
20260509224414 23 198 0.0 3.2 0.00 0.00 0.00 66 1014.6
20260509223912 24 12 1.6 3.2 0.00 0.00 0.00 68 1014.5
20260509223408 23 245 3.2 3.2 0.00 0.00 0.00 68 1014.4
20260509222906 24 189 3.2 3.2 0.00 0.00 0.00 69 1014.5
20260509222401 24 177 1.6 3.2 0.00 0.00 0.00 68 1014.4
20260509221856 24 205 3.2 3.2 0.00 0.00 0.00 68 1014.2
20260509221353 24 190 6.4 6.4 0.00 0.00 0.00 67 1014.2
20260509220849 24 183 3.2 4.8 0.00 0.00 0.00 68 1014.2
20260509220345 24 214 4.8 4.8 0.00 0.00 0.00 67 1014.0
20260509215840 24 201 1.6 4.8 0.00 0.00 0.00 67 1013.9
20260509215337 24 189 3.2 4.8 0.00 0.00 0.00 67 1014.0
20260509214834 24 188 3.2 3.2 0.00 0.00 0.00 68 1014.2
20260509214331 24 200 1.6 3.2 0.00 0.00 0.00 68 1014.4
20260509213829 24 201 1.6 3.2 0.00 0.00 0.00 68 1014.0
20260509213323 23 187 6.4 11.3 0.00 0.00 0.00 67 1014.2
20260509212821 24 199 6.4 6.4 0.00 0.00 0.00 66 1014.1
20260509212314 24 198 3.2 4.8 0.00 0.00 0.00 66 1014.2
20260509211809 24 189 3.2 4.8 0.00 0.00 0.00 67 1014.2
20260509211305 23 189 4.8 6.4 0.00 0.00 0.00 67 1014.2
20260509210802 24 198 4.8 4.8 0.00 0.00 0.00 66 1014.1
20260509210259 23 165 1.6 6.4 0.00 0.00 0.00 66 1014.1
20260509205758 23 196 6.4 9.7 0.00 0.00 0.00 65 1013.9
20260509205254 24 194 9.7 11.3 0.00 0.00 0.00 68 1014.4
20260509204750 24 187 6.4 6.4 0.00 0.00 0.00 68 1014.0
20260509204246 23 197 6.4 9.7 0.00 0.00 0.00 66 1013.9
20260509203742 24 187 6.4 6.4 0.00 0.00 0.00 67 1014.0
20260509203240 24 191 8.0 9.7 0.00 0.00 0.00 66 1013.9
20260509202737 24 179 6.4 9.7 0.00 0.00 0.00 64 1013.8
20260509202233 24 195 4.8 9.7 0.00 0.00 0.00 62 1013.6
20260509201727 24 195 4.8 9.7 0.00 0.00 0.00 61 1013.7
20260509201224 24 179 11.3 12.9 0.00 0.00 0.00 65 1013.9
20260509200721 25 194 8.0 9.7 0.00 0.00 0.00 59 1013.8
20260509200221 24 189 3.2 9.7 0.00 0.00 0.00 59 1013.8
20260509195718 24 190 9.7 9.7 0.00 0.00 0.00 63 1014.0
20260509195213 24 182 6.4 11.3 0.00 0.00 0.00 63 1014.4
20260509194712 24 184 3.2 6.4 0.00 0.00 0.00 61 1014.4
20260509194209 24 183 6.4 11.3 0.00 0.00 0.00 60 1014.4
20260509193706 24 202 3.2 9.7 0.00 0.00 0.00 59 1014.6
20260509193201 24 167 1.6 4.8 0.00 0.00 0.00 58 1014.5
20260509192657 23 200 4.8 11.3 0.00 0.00 0.00 62 1014.5
20260509192158 24 232 4.8 6.4 0.00 0.00 0.00 61 1014.5
20260509191653 23 181 6.4 12.9 0.00 0.00 0.00 60 1014.6
20260509191150 24 187 6.4 6.4 0.00 0.00 0.00 61 1014.6
20260509190646 23 192 6.4 11.3 0.00 0.00 0.00 65 1014.9
20260509190143 23 197 6.4 12.9 0.00 0.00 0.00 64 1014.8
20260509185641 23 175 3.2 6.4 0.00 0.00 0.00 61 1014.6
20260509185137 23 178 11.3 12.9 0.00 0.00 0.00 64 1014.9
20260509184635 23 206 6.4 9.7 0.00 0.00 0.00 67 1015.0
20260509184131 23 248 3.2 9.7 0.00 0.00 0.00 64 1014.8
20260509183628 23 191 6.4 9.7 0.00 0.00 0.00 64 1014.9
20260509183123 23 169 4.8 6.4 0.00 0.00 0.00 63 1014.6
20260509182620 23 181 6.4 11.3 0.00 0.00 0.00 64 1014.9
20260509182117 23 191 3.2 9.7 0.00 0.00 0.00 65 1014.9
20260509181615 23 172 6.4 6.4 0.00 0.00 0.00 66 1014.9
20260509181111 23 165 3.2 4.8 0.00 0.00 0.00 65 1014.7
20260509180608 23 177 1.6 3.2 0.00 0.00 0.00 68 1014.8
20260509180105 22 173 8.0 9.7 0.00 0.00 0.00 67 1014.7
20260509175600 23 181 3.2 4.8 0.00 0.00 0.00 69 1014.4
20260509175058 23 155 3.2 3.2 0.00 0.00 0.00 65 1014.5
20260509174554 22 128 1.6 3.2 0.00 0.00 0.00 66 1014.6